Weather History for Hays, KS

Change the Weather History Date:

Friday, April 18, 2014

  Actual Average Record
Temperature  
Mean Temperature 52 °F -  
Max Temperature 71 °F 62 °F 89 °F (2004)
Min Temperature 33 °F 39 °F 28 °F (1999)
Degree Days  
Heating Degree Days 13    
Growing Degree Days 2 (Base 50)    
Moisture  
Dew Point 38 °F    
Average Humidity 60    
Maximum Humidity 87    
Minimum Humidity 35    
Precipitation  
Precipitation 0.00 in - - ()
Sea Level Pressure  
Sea Level Pressure 30.12 in    
Wind  
Wind Speed 13 mph (South)    
Max Wind Speed 30 mph    
Max Gust Speed 37 mph    
Visibility 9 miles    
Events      
Averages and records for this station are not official NWS values.
T = Trace of Precipitation, MM = Missing Value Source: NWS Daily Summary

Daily Weather History Graph

Daily Weather History Graph

Search for Another Location

Airport:

Trip Planner

Search our weather history database for the weather conditions in past years. The results will help you decide how hot, cold, wet, or windy it might be!

Date:

Astronomy

Apr. 18, 2014 Rise Set
Actual Time 6:56 AM CDT 8:17 PM CDT
Civil Twilight 6:28 AM CDT 8:44 PM CDT
Nautical Twilight 5:55 AM CDT 9:18 PM CDT
Astronomical Twilight 5:20 AM CDT 9:53 PM CDT
Moon No Moon Rise 9:21 AM CDT (4/18)
Length of Visible Light 14h 16m
Length of Day
13h 20m
Waning Gibbous, 87% of the Moon is Illuminated
Apr 18
Waning Gibbous
Apr 22
Last Quarter
Apr 29
New
May 6
First Quarter
May 14
Full

Hourly Weather History & Observations

Time (CDT) Temp. Windchill Dew Point Humidity Pressure Visibility Wind Dir Wind Speed Gust Speed Precip Events Conditions
12:15 AM 37.4 °F 31.4 °F 30.2 °F 75% 30.22 in 10.0 mi South 8.1 mph - N/A   Clear
12:35 AM 37.4 °F 31.4 °F 30.2 °F 75% 30.22 in 10.0 mi South 8.1 mph - N/A   Clear
12:55 AM 39.2 °F 34.2 °F 30.2 °F 70% 30.22 in 10.0 mi South 6.9 mph - N/A   Clear
1:15 AM 37.4 °F 30.8 °F 30.2 °F 75% 30.22 in 10.0 mi South 9.2 mph - N/A   Clear
1:35 AM 39.2 °F 33.6 °F 30.2 °F 70% 30.23 in 10.0 mi South 8.1 mph - N/A   Clear
1:55 AM 37.4 °F 32.8 °F 30.2 °F 75% 30.23 in 10.0 mi South 5.8 mph - N/A   Clear
2:15 AM 37.4 °F 32.1 °F 30.2 °F 75% 30.22 in 10.0 mi SSE 6.9 mph - N/A   Clear
2:55 AM 35.6 °F 31.7 °F 30.2 °F 81% 30.22 in 8.0 mi South 4.6 mph - N/A   Clear
3:15 AM 35.6 °F 30.7 °F 32.0 °F 87% 30.21 in 8.0 mi South 5.8 mph - N/A   Clear
3:35 AM 35.6 °F 29.9 °F 30.2 °F 81% 30.21 in 7.0 mi South 6.9 mph - N/A   Clear
3:55 AM 35.6 °F 28.6 °F 30.2 °F 81% 30.20 in 7.0 mi South 9.2 mph - N/A   Clear
4:15 AM 35.6 °F 29.2 °F 30.2 °F 81% 30.20 in 6.0 mi South 8.1 mph - N/A   Clear
4:35 AM 35.6 °F 29.2 °F 32.0 °F 87% 30.20 in 7.0 mi SSW 8.1 mph - N/A   Clear
4:55 AM 35.6 °F 29.2 °F 32.0 °F 87% 30.19 in 7.0 mi SSW 8.1 mph - N/A   Clear
5:15 AM 35.6 °F 29.9 °F 30.2 °F 81% 30.19 in 7.0 mi SSW 6.9 mph - N/A   Clear
5:35 AM 35.6 °F 29.9 °F 30.2 °F 81% 30.20 in 8.0 mi South 6.9 mph - N/A   Clear
5:55 AM 35.6 °F 30.7 °F 30.2 °F 81% 30.20 in 8.0 mi SSW 5.8 mph - N/A   Clear
6:15 AM 35.6 °F 31.7 °F 30.2 °F 81% 30.20 in 9.0 mi SSW 4.6 mph - N/A   Clear
6:35 AM 33.8 °F 30.8 °F 28.4 °F 81% 30.19 in 8.0 mi South 3.5 mph - N/A   Clear
6:55 AM 33.8 °F 30.8 °F 30.2 °F 87% 30.19 in 5.0 mi South 3.5 mph - N/A   Clear
7:15 AM 33.8 °F 30.8 °F 28.4 °F 81% 30.19 in 8.0 mi SSE 3.5 mph - N/A   Clear
7:35 AM 33.8 °F 28.6 °F 28.4 °F 81% 30.20 in 6.0 mi SSE 5.8 mph - N/A   Clear
7:55 AM 35.6 °F 30.7 °F 32.0 °F 87% 30.20 in 7.0 mi SSE 5.8 mph - N/A   Clear
8:15 AM 37.4 °F 32.1 °F 33.8 °F 87% 30.20 in 8.0 mi SSE 6.9 mph - N/A   Clear
8:35 AM 39.2 °F 34.2 °F 33.8 °F 81% 30.20 in 8.0 mi South 6.9 mph - N/A   Clear
8:55 AM 42.8 °F 38.0 °F 35.6 °F 76% 30.20 in 9.0 mi South 8.1 mph - N/A   Clear
9:15 AM 46.4 °F 41.1 °F 37.4 °F 71% 30.19 in 10.0 mi South 11.5 mph - N/A   Clear
9:35 AM 51.8 °F - 39.2 °F 62% 30.19 in 10.0 mi South 16.1 mph - N/A   Clear
9:55 AM 53.6 °F - 41.0 °F 62% 30.19 in 10.0 mi South 16.1 mph 20.7 mph N/A   Clear
10:15 AM 55.4 °F - 42.8 °F 63% 30.18 in 10.0 mi South 19.6 mph 24.2 mph N/A   Clear
10:35 AM 59.0 °F - 42.8 °F 55% 30.17 in 10.0 mi South 20.7 mph 26.5 mph N/A   Clear
10:55 AM 60.8 °F - 44.6 °F 55% 30.17 in 10.0 mi South 23.0 mph 28.8 mph N/A   Clear
11:15 AM 62.6 °F - 44.6 °F 52% 30.16 in 10.0 mi SSW 24.2 mph 29.9 mph N/A   Clear
11:55 AM 62.6 °F - 44.6 °F 52% 30.16 in 10.0 mi South 18.4 mph 28.8 mph N/A   Clear
12:15 PM 64.4 °F - 44.6 °F 49% 30.15 in 10.0 mi South 25.3 mph 32.2 mph N/A   Clear
12:35 PM 66.2 °F - 46.4 °F 49% 30.14 in 10.0 mi South 23.0 mph 28.8 mph N/A   Clear
12:55 PM 66.2 °F - 44.6 °F 46% 30.14 in 10.0 mi SSW 25.3 mph 32.2 mph N/A   Clear
1:15 PM 66.2 °F - 44.6 °F 46% 30.13 in 10.0 mi South 26.5 mph 33.4 mph N/A   Clear
1:35 PM 66.2 °F - 44.6 °F 46% 30.13 in 10.0 mi South 23.0 mph 32.2 mph N/A   Clear
1:55 PM 68.0 °F - 44.6 °F 43% 30.12 in 10.0 mi South 21.9 mph 31.1 mph N/A   Clear
2:15 PM 69.8 °F - 44.6 °F 40% 30.11 in 10.0 mi South 26.5 mph 34.5 mph N/A   Clear
2:35 PM 69.8 °F - 44.6 °F 40% 30.10 in 10.0 mi South 29.9 mph 36.8 mph N/A   Clear
2:55 PM 69.8 °F - 44.6 °F 40% 30.09 in 10.0 mi South 25.3 mph 34.5 mph N/A   Clear
3:15 PM 69.8 °F - 44.6 °F 40% 30.09 in 10.0 mi South 25.3 mph 31.1 mph N/A   Clear
3:35 PM 69.8 °F - 44.6 °F 40% 30.07 in 10.0 mi South 28.8 mph 34.5 mph N/A   Clear
3:55 PM 71.6 °F - 44.6 °F 38% 30.06 in 10.0 mi South 27.6 mph 36.8 mph N/A   Clear
4:15 PM - - - N/A% 30.05 in 10.0 mi South 26.5 mph 36.8 mph N/A   Clear
4:35 PM - - - N/A% 30.03 in 10.0 mi South 27.6 mph - N/A   Clear
4:55 PM 71.6 °F - 42.8 °F 35% 30.03 in 10.0 mi South 26.5 mph 36.8 mph N/A   Clear
5:15 PM 71.6 °F - 44.6 °F 38% 30.02 in 10.0 mi South 27.6 mph 34.5 mph N/A   Clear
5:35 PM 71.6 °F - 44.6 °F 38% 30.01 in 10.0 mi South 27.6 mph 34.5 mph N/A   Clear
5:55 PM 71.6 °F - 44.6 °F 38% 30.01 in 10.0 mi SSE 26.5 mph 33.4 mph N/A   Clear
6:15 PM 71.6 °F - 44.6 °F 38% 30.01 in 10.0 mi SSE 25.3 mph 33.4 mph N/A   Clear
6:35 PM 69.8 °F - 44.6 °F 40% 30.00 in 10.0 mi SSE 28.8 mph 33.4 mph N/A   Clear
6:55 PM 69.8 °F - 42.8 °F 38% 30.00 in 10.0 mi South 24.2 mph 32.2 mph N/A   Clear
7:15 PM 69.8 °F - 42.8 °F 38% 30.00 in 10.0 mi SSE 21.9 mph 27.6 mph N/A   Clear
7:35 PM 66.2 °F - 42.8 °F 43% 30.00 in 10.0 mi SSE 24.2 mph 28.8 mph N/A   Clear
7:55 PM 66.2 °F - 42.8 °F 43% 30.01 in 10.0 mi SSE 20.7 mph 26.5 mph N/A   Clear
8:15 PM 64.4 °F - 42.8 °F 45% 30.01 in 10.0 mi SSE 17.3 mph - N/A   Clear
8:35 PM 62.6 °F - 42.8 °F 48% 30.02 in 10.0 mi SSE 17.3 mph - N/A   Clear
8:55 PM 62.6 °F - 42.8 °F 48% 30.03 in 10.0 mi SSE 16.1 mph - N/A   Clear
9:15 PM 60.8 °F - 42.8 °F 52% 30.03 in 10.0 mi SSE 16.1 mph - N/A   Clear
9:35 PM 60.8 °F - 42.8 °F 52% 30.03 in 10.0 mi SSE 15.0 mph - N/A   Clear
9:55 PM 59.0 °F - 42.8 °F 55% 30.04 in 10.0 mi SSE 15.0 mph - N/A   Clear
10:15 PM 57.2 °F - 42.8 °F 59% 30.04 in 10.0 mi SSE 15.0 mph - N/A   Clear
10:35 PM 57.2 °F - 41.0 °F 55% 30.04 in 10.0 mi SSE 15.0 mph - N/A   Clear
10:55 PM 57.2 °F - 41.0 °F 55% 30.03 in 10.0 mi SSE 15.0 mph - N/A   Clear
11:15 PM 55.4 °F - 41.0 °F 58% 30.04 in 10.0 mi SSE 15.0 mph - N/A   Clear
11:35 PM 55.4 °F - 41.0 °F 58% 30.04 in 10.0 mi South 13.8 mph - N/A   Clear
11:55 PM 55.4 °F - 41.0 °F 58% 30.03 in 10.0 mi SSE 12.7 mph - N/A   Clear